FW0135 Weather Reports


Display with metric or nautical units.
time (UTC)temp
F
wind
direction
speed
MPH
gust
MPH
rain 1hr
in
rain 24hr
in
rain mn
in
humidity
%
barometer
mb
20260505032056 55 355 0.0 1.0 0.00 0.00 0.00 71 993.9
20260505031044 56 355 0.0 2.0 0.00 0.00 0.00 70 993.9
20260505030537 56 355 0.0 1.0 0.00 0.00 0.00 69 994.0
20260505030032 56 355 0.0 3.0 0.00 0.00 0.00 69 993.9
20260505025525 56 355 0.0 3.0 0.00 0.00 0.00 69 994.0
20260505025019 56 355 0.0 1.0 0.00 0.00 0.00 68 994.0
20260505024514 56 355 0.0 2.0 0.00 0.00 0.00 69 993.9
20260505024008 56 355 0.0 2.0 0.00 0.00 0.00 69 993.9
20260505023502 56 355 0.0 1.0 0.00 0.00 0.00 69 993.9
20260505022955 55 355 0.0 1.0 0.00 0.00 0.00 68 993.8
20260505022449 55 355 0.0 3.0 0.00 0.00 0.00 68 993.7
20260505021949 55 355 0.0 3.0 0.00 0.00 0.00 69 993.7
20260505021447 55 313 0.0 2.0 0.00 0.00 0.00 69 993.7
20260505020947 55 313 0.0 2.0 0.00 0.00 0.00 69 993.7
20260505020448 55 313 0.0 0.0 0.00 0.00 0.00 69 993.7
20260505015946 55 313 0.0 0.0 0.00 0.00 0.00 69 993.6
20260505015443 55 313 0.0 0.0 0.00 0.00 0.00 70 993.6
20260505014443 55 313 0.0 0.0 0.00 0.00 0.00 69 993.6
20260505013940 55 313 0.0 0.0 0.00 0.00 0.00 68 993.5
20260505013439 55 313 0.0 0.0 0.00 0.00 0.00 68 993.4
20260505012936 56 313 0.0 0.0 0.00 0.00 0.00 68 993.3
20260505012436 56 313 0.0 0.0 0.00 0.00 0.00 68 993.3
20260505011936 56 313 0.0 0.0 0.00 0.00 0.00 67 993.2
20260505011436 56 313 0.0 0.0 0.00 0.00 0.00 67 993.1
20260505010936 56 313 0.0 0.0 0.00 0.00 0.00 67 993.1
20260505010435 57 313 0.0 0.0 0.00 0.00 0.00 66 993.1
20260505005935 57 313 0.0 0.0 0.00 0.00 0.00 66 993.1
20260505005432 57 313 0.0 1.0 0.00 0.00 0.00 65 993.1
20260505003931 58 313 0.0 0.0 0.00 0.00 0.00 61 992.7
20260505003431 58 313 0.0 0.0 0.00 0.00 0.00 62 992.7
20260505002930 59 313 0.0 0.0 0.00 0.00 0.00 61 992.7
20260505002430 59 313 0.0 0.0 0.00 0.00 0.00 61 992.5
20260505001931 59 313 0.0 1.0 0.00 0.00 0.00 60 992.4
20260505001432 60 313 0.0 1.0 0.00 0.00 0.00 59 992.3
20260505000927 60 313 0.0 0.0 0.00 0.00 0.00 58 992.2
20260504235928 61 313 0.0 0.0 0.00 0.00 0.00 58 992.1
20260504235426 61 313 0.0 0.0 0.00 0.00 0.00 58 992.0
20260504234927 62 313 0.0 0.0 0.00 0.00 0.00 58 991.9
20260504234426 62 313 0.0 0.0 0.00 0.00 0.00 57 991.9
20260504233926 62 313 0.0 1.0 0.00 0.00 0.00 56 991.8
20260504232420 64 313 0.0 1.0 0.00 0.00 0.00 54 991.5
20260504231914 64 313 0.0 1.0 0.00 0.00 0.00 53 991.5
20260504231409 65 313 0.0 1.0 0.00 0.00 0.00 54 991.4
20260504230903 65 313 0.0 1.0 0.00 0.00 0.00 53 991.4
20260504230357 65 313 0.0 1.0 0.00 0.00 0.00 50 991.4
20260504225851 66 313 0.0 1.0 0.00 0.00 0.00 52 991.4
20260504225345 66 313 0.0 1.0 0.00 0.00 0.00 51 991.3
20260504224839 67 313 0.0 1.0 0.00 0.00 0.00 50 991.3
20260504224333 67 313 1.0 3.0 0.00 0.00 0.00 49 991.1
20260504223321 68 311 0.0 2.0 0.00 0.00 0.00 45 990.9
20260504222814 68 311 0.0 2.0 0.00 0.00 0.00 45 990.9
20260504222309 69 311 0.0 2.0 0.00 0.00 0.00 44 990.9
20260504221256 69 311 1.0 4.0 0.00 0.00 0.00 40 990.9
20260504220750 69 312 1.0 4.0 0.00 0.00 0.00 41 990.9
20260504220245 69 292 1.0 3.0 0.00 0.00 0.00 42 990.9
20260504215738 69 289 1.0 4.0 0.00 0.00 0.00 41 990.9
20260504215233 69 289 1.0 4.0 0.00 0.00 0.00 38 991.0
20260504214727 69 298 1.0 4.0 0.00 0.00 0.00 40 991.1
20260504214221 69 292 1.0 3.0 0.00 0.00 0.00 42 991.0
20260504213714 70 292 1.0 3.0 0.00 0.00 0.00 39 991.0
20260504213209 70 287 2.0 5.0 0.00 0.00 0.00 39 991.0
20260504212703 70 287 2.0 5.0 0.00 0.00 0.00 37 991.0
20260504212156 70 339 2.0 6.0 0.00 0.00 0.00 39 990.9
20260504211650 70 282 2.0 6.0 0.00 0.00 0.00 37 991.0
20260504210133 70 307 2.0 4.0 0.00 0.00 0.00 40 991.1
20260504205627 70 242 2.0 3.0 0.00 0.00 0.00 38 991.1
20260504205120 70 290 2.0 4.0 0.00 0.00 0.00 38 991.1
20260504204615 70 308 1.0 5.0 0.00 0.00 0.00 40 991.0
20260504204109 70 290 1.0 5.0 0.00 0.00 0.00 39 991.0
20260504202550 71 308 2.0 4.0 0.00 0.00 0.00 38 991.0
20260504202044 70 289 2.0 6.0 0.00 0.00 0.00 38 991.1
20260504201539 70 5 2.0 6.0 0.00 0.00 0.00 38 991.2
20260504200527 71 302 2.0 4.0 0.00 0.00 0.00 36 991.3
20260504200021 71 310 2.0 4.0 0.00 0.00 0.00 38 991.3
20260504195514 71 245 3.0 6.0 0.00 0.00 0.00 36 991.3
20260504195008 71 303 3.0 6.0 0.00 0.00 0.00 35 991.3
20260504194503 71 296 3.0 5.0 0.00 0.00 0.00 36 991.2
20260504193957 72 314 3.0 6.0 0.00 0.00 0.00 37 991.1
20260504193450 72 303 2.0 6.0 0.00 0.00 0.00 35 991.1
20260504192944 71 300 1.0 4.0 0.00 0.00 0.00 37 991.1
20260504192439 71 306 2.0 5.0 0.00 0.00 0.00 38 991.1
20260504191933 71 308 2.0 5.0 0.00 0.00 0.00 37 991.2
20260504191426 71 11 3.0 10.0 0.00 0.00 0.00 38 991.2
20260504190921 71 269 3.0 10.0 0.00 0.00 0.00 36 991.3
20260504190415 71 290 2.0 5.0 0.00 0.00 0.00 38 991.2
20260504185908 70 309 2.0 6.0 0.00 0.00 0.00 39 991.2
20260504185403 70 303 3.0 6.0 0.00 0.00 0.00 38 991.2
20260504184857 70 298 2.0 5.0 0.00 0.01 0.00 39 991.3
20260504184350 69 298 2.0 5.0 0.00 0.01 0.00 40 991.3
20260504183844 69 241 2.0 5.0 0.00 0.01 0.00 39 991.2
20260504183339 68 330 2.0 5.0 0.00 0.01 0.00 42 991.3
20260504182833 67 292 2.0 3.0 0.00 0.01 0.00 43 991.5
20260504182326 67 292 2.0 3.0 0.00 0.01 0.00 43 991.6
20260504181821 67 315 2.0 4.0 0.00 0.01 0.00 42 991.6
20260504181315 67 315 2.0 4.0 0.00 0.01 0.00 41 991.6
20260504180808 66 22 2.0 6.0 0.00 0.01 0.00 43 991.6
20260504180303 67 311 3.0 6.0 0.00 0.01 0.00 41 991.7
20260504175757 67 309 3.0 5.0 0.00 0.01 0.00 39 991.7
20260504175250 67 311 2.0 5.0 0.00 0.01 0.00 41 991.8
20260504174747 68 309 2.0 5.0 0.00 0.01 0.00 39 991.7
20260504174248 68 294 2.0 5.0 0.00 0.01 0.00 41 991.7
20260504173247 67 274 2.0 6.0 0.00 0.01 0.00 39 991.8
20260504172745 67 300 2.0 5.0 0.00 0.01 0.00 41 991.8
20260504172246 68 302 2.0 5.0 0.00 0.01 0.00 40 991.8
20260504171746 68 305 2.0 5.0 0.00 0.01 0.00 40 991.8
20260504171248 69 314 2.0 5.0 0.00 0.01 0.00 41 991.8
20260504170747 68 288 2.0 5.0 0.00 0.01 0.00 38 991.9
20260504170247 67 300 2.0 7.0 0.00 0.01 0.00 41 991.9
20260504160245 66 298 2.0 5.0 0.00 0.01 0.00 41 992.3
20260504150741 62 254 1.0 3.0 0.00 0.01 0.00 50 992.9
20260504150235 61 270 1.0 3.0 0.00 0.01 0.00 48 992.9
20260504141129 60 257 2.0 4.0 0.00 0.01 0.00 52 993.4
20260504140624 59 321 2.0 4.0 0.00 0.01 0.00 51 993.5
20260504130512 54 303 1.0 5.0 0.00 0.01 0.00 61 994.2
20260504100251 41 25 0.0 0.0 0.00 0.01 0.00 87 994.8
20260504081741 39 25 0.0 0.0 0.00 0.01 0.00 87 995.1
20260504081236 39 25 0.0 0.0 0.00 0.02 0.00 87 995.0
20260504080730 39 25 0.0 0.0 0.00 0.02 0.00 88 994.6
20260504080224 39 25 0.0 0.0 0.00 0.02 0.00 87 994.9
20260504070112 38 25 0.0 0.0 0.00 0.02 0.00 88 994.9
20260504045342 33 25 0.0 0.0 0.00 0.02 0.00 88 995.0
20260504044835 33 25 0.0 0.0 0.00 0.02 0.00 88 995.1
20260504044330 33 25 0.0 0.0 0.00 0.02 0.00 88 995.1
20260504043824 33 25 0.0 0.0 0.00 0.02 0.00 87 995.1
20260504043318 33 25 0.0 0.0 0.00 0.02 0.00 87 995.2
20260504042812 33 25 0.0 0.0 0.00 0.02 0.00 87 995.1
20260504042306 33 25 0.0 0.0 0.00 0.02 0.00 87 995.0
20260504041800 33 25 0.0 0.0 0.00 0.02 0.00 87 995.1
20260504041253 33 25 0.0 0.0 0.00 0.02 0.00 87 995.0
20260504040747 33 25 0.0 0.0 0.00 0.02 0.00 87 995.0
20260504040241 33 25 0.0 0.0 0.00 0.02 0.00 87 994.9
20260504035737 34 25 0.0 0.0 0.00 0.02 0.02 87 994.9
20260504034725 34 25 0.0 0.0 0.00 0.02 0.02 86 995.0
20260504034218 34 25 0.0 0.0 0.00 0.02 0.02 86 995.0
20260504032701 34 25 0.0 0.0 0.00 0.02 0.02 86 994.9